Hourly Data Report for November 22, 2021

MOUNT FOREST (AUT)
ONTARIO
Current Station Operator: ECCC - MSC

43°59'00.000" N
80°45'00.000" W
414.50 m
6145504
71631
WLS

Download Data

Hourly Data (November 2021)
Hourly Data Report for November 22, 2021
TIME
LST
Temp Definition
°C
Dew Point Definition
°C
Rel Hum Definition
%
Precip. Amount Definition
mm

Wind Dir Definition
10's deg

Wind Spd Definition
km/h
Visibility Definition
km
Stn Press Definition
kPa
Hmdx Definition


Wind Chill Definition


Weather Definition


00:00 0.1 -0.5 96 0.5 30 22   95.79     LegendNANA
01:00 -0.8 -1.6 94 0.6 30 22   95.87   -7 LegendNANA
02:00 -1.6 -4.7 79 0.0 31 19   95.94   -7 LegendNANA
03:00 -2.2 -6.4 73 0.0 29 21   96.00   -8 LegendNANA
04:00 -2.6 -6.7 73 0.0 30 11   96.06   -7 LegendNANA
05:00 -3.0 -5.5 83 0.0 27 16   96.11   -8 LegendNANA
06:00 -3.4 -6.2 81 0.0 28 20   96.18   -10 LegendNANA
07:00 -3.8 -5.6 87 0.1 27 14   96.23   -9 LegendNANA
08:00 -3.4 -5.8 84 0.0 27 10   96.27   -7 LegendNANA
09:00 -3.0 -5.7 82 0.0 26 15   96.31   -8 LegendNANA
10:00 -3.0 -4.9 86 0.0 28 16   96.35   -8 LegendNANA
11:00 -2.5 -4.8 84 0.1 28 16   96.37   -8 LegendNANA
12:00 -3.0 -4.3 91 0.7 26 19   96.34   -9 LegendNANA
13:00 -3.4 -4.1 94 1.0 28 20   96.35   -10 LegendNANA
14:00 -3.4 -4.2 94 1.8 27 17   96.33   -9 LegendNANA
15:00 -2.6 -4.3 88 0.1 27 16   96.33   -8 LegendNANA
16:00 -2.8 -4.5 88 0.0 27 14   96.38   -8 LegendNANA
17:00 -3.0 -4.8 87 0.0 25 11   96.44   -7 LegendNANA
18:00 -3.4 -4.6 92 0.2 27 7   96.48   -6 LegendNANA
19:00 -3.7 -4.5 94 0.3 28 12   96.50   -8 LegendNANA
20:00 -3.1 -4.0 94 0.0 28 9   96.53   -7 LegendNANA
21:00 -3.1 -4.3 91 0.2 29 11   96.55   -7 LegendNANA
22:00 -3.3 -5.5 85 0.1 28 11   96.55   -8 LegendNANA
23:00 -4.5 -6.7 84 0.0 27 8   96.54   -8 LegendNANA

Notes on Data Quality.

Legend

  • E = Estimated
  • M = Missing
  • NA = Not Available*
  • [empty] = Indicates an unobserved value
Date modified: